Flag for Poland Weather past 2 weeks in Wroclaw, Poland

Now
48 °F

Fog.


Feels Like: 48 °F
Forecast: 56 / 75 °F
Wind: 1 mph from North

Location: Wroclaw Ii

Current Time: Aug 22, 2014 at 2:19:37 AM

Latest Report: Aug 22, 2014 at 2:00 AM


Visibility: N/A

Pressure: 30.04 "Hg

Humidity: 87%

Dew point: 45 °F

Location of WroclawLocation

Historic Weather in Wroclaw — Graph

°F

Wroclaw temperature yesterday

Maximum temperature yesterday: 68 °F (at 12:00 PM)
Minimum temperature yesterday: 50 °F (at 11:00 PM)
Average temperature yesterday: 58 °F

Past Weeks' High & Low Weather Summary

 TemperatureHumidityPressure
High90 °F (Aug 9, 5:00 PM)94% (Aug 7, 3:00 AM)30.04 "Hg (Aug 7, 3:00 AM)
Low48 °F (Aug 22, 1:00 AM)34% (Aug 12, 4:00 PM)29.62 "Hg (Aug 13, 11:30 PM)
Average66 °F71%29.91 "Hg
* Reported Aug 7 1:00 AM — Aug 22 1:00 AM, Wroclaw, Weather by CustomWeather, © 2014

Note: Actual official high and low records may vary slightly from our data, if they occured in-between our weather recording intervals... More about our weather records

Advertising

Wroclaw weather history for previous 24 hours

 ConditionsComfort  
Time TempWeatherWind HumidityBarometerVisibility
1:00 AM
Aug 22
48 °FClear.No wind87%30.04 "Hg10 mi
12:30 AM50 °FClear.1 mph88%30.04 "Hg10 mi
12:00 AM50 °FClear.No wind88%30.04 "Hg10 mi
11:30 PM
Aug 21
50 °FClear.2 mph88%30.04 "Hg10 mi
11:00 PM50 °FClear.2 mph88%30.04 "Hg10 mi
10:30 PM52 °FClear.2 mph88%30.04 "Hg10 mi
10:00 PM52 °FClear.2 mph88%30.04 "Hg10 mi
9:30 PM54 °FClear.1 mph94%30.04 "Hg10 mi
9:00 PM55 °FSunny.5 mph88%30.04 "Hg10 mi
8:30 PM55 °FSunny.1 mph88%30.01 "Hg10 mi
8:00 PM55 °FPassing clouds.1 mph94%30.01 "HgN/A
7:30 PM57 °FPassing clouds.1 mph94%30.01 "HgN/A
7:00 PM63 °FPassing clouds.2 mph77%30.01 "HgN/A
6:30 PM63 °FPassing clouds.5 mph68%30.01 "HgN/A
6:00 PM64 °FPassing clouds.6 mph64%30.01 "HgN/A
5:30 PM64 °FPassing clouds.3 mph60%30.01 "HgN/A
5:00 PM61 °FScattered clouds.2 mph72%30.01 "HgN/A
4:30 PM63 °FSprinkles. Partly sunny.13 mph59%30.01 "HgN/A
4:00 PM68 °FThunderstorms. Passing clouds.5 mph49%30.01 "HgN/A
3:30 PM68 °FPassing clouds.7 mph46%30.01 "HgN/A
3:00 PM66 °FScattered clouds.6 mph52%30.01 "HgN/A
2:30 PM64 °FScattered clouds.7 mph52%30.01 "HgN/A
2:00 PM68 °FScattered clouds.1 mph43%30.01 "HgN/A
1:30 PM68 °FPassing clouds.5 mph46%30.01 "HgN/A
1:00 PM66 °FScattered clouds.5 mph43%30.01 "HgN/A
12:30 PM66 °FPassing clouds.7 mph49%30.01 "HgN/A
12:00 PM68 °FPassing clouds.6 mph46%30.04 "HgN/A
11:30 AM66 °FPassing clouds.7 mph49%30.04 "HgN/A
11:00 AM64 °FPassing clouds.5 mph56%30.04 "HgN/A
10:30 AM64 °FPassing clouds.5 mph60%30.04 "HgN/A
10:00 AM61 °FSunny.2 mph68%30.04 "Hg10 mi
9:30 AM61 °FPassing clouds.3 mph68%30.01 "HgN/A
9:00 AM57 °FSunny.1 mph82%30.01 "Hg10 mi
8:30 AM57 °FSunny.2 mph88%30.01 "Hg10 mi
8:00 AM55 °FSunny.1 mph88%30.01 "Hg10 mi
7:30 AM54 °FSunny.1 mph94%30.01 "Hg10 mi
7:00 AM54 °FSunny.1 mph88%30.01 "Hg10 mi
6:30 AM54 °FClear.1 mph88%30.01 "Hg10 mi
6:00 AM55 °FClear.5 mph82%30.01 "Hg10 mi
5:30 AM54 °FPassing clouds.3 mph88%30.01 "HgN/A
5:00 AM54 °FLight rain. Passing clouds.2 mph88%30.01 "HgN/A
4:30 AM54 °FLight rain. Passing clouds.3 mph88%30.01 "HgN/A
4:00 AM54 °FLight rain. Passing clouds.3 mph88%30.01 "HgN/A
3:30 AM54 °FClear.2 mph88%30.01 "Hg10 mi
3:00 AM54 °FClear.1 mph82%30.01 "Hg10 mi
2:30 AM54 °FClear.1 mph82%30.01 "Hg10 mi
2:00 AM54 °FClear.1 mph82%30.01 "Hg10 mi
Weather by CustomWeather, © 2014

See weather overviewHow to use our weather pages